Regional Weather Roundup
Issued by NWS Northern Indiana

Home | Current Version | Previous Version | Text Only | Print | Product List | Glossary Off
Versions: 1 2 3 4 5 6 7 8 9 10 11 12 13 14 15 16 17 18 19 20 21 22 23 24 25 26 27 28 29 30 31 32 33 34 35 36 37 38 39 40 41 42 43 44 45 46 47 48 49 50

000
ASUS43 KIWX 270700
RWRIWX

KIWX WEATHER ROUNDUP
NATIONAL WEATHER SERVICE NORTHERN INDIANA
300 AM EDT WED JUL 27 2016

NOTE: "FAIR" INDICATES FEW OR NO CLOUDS BELOW 12,000 FEET WITH NO
SIGNIFICANT WEATHER AND/OR OBSTRUCTIONS TO VISIBILITY.

* THESE STATIONS ARE NOT UNDER NWS QUALITY CONTROL. THEY ALSO MAY NOT
  REPORT WEATHER SUCH AS PRECIPITATION OR FOG.

INZ001>027-270800-
NORTHERN INDIANA

CITY           SKY/WX    TMP DP  RH WIND       PRES   REMARKS
KNOX*          CLEAR     63  63 100 SW3       30.00F
SOUTH BEND     CLEAR     64  62  93 CALM      30.01F
GOSHEN         CLEAR     66  63  90 CALM      30.00F
MONTICELLO*    CLEAR     67  64  87 CALM      30.00F
ANGOLA*          N/A     63  52  67 CALM      30.01F VSB 3/4
FORT WAYNE     PTCLDY    66  62  87 NW3       30.00F
PERU/GRISSOM   CLEAR     65  64  96 CALM      29.99F

$$
INZ028>050-270800-
CENTRAL INDIANA

CITY           SKY/WX    TMP DP  RH WIND       PRES   REMARKS
LAFAYETTE      CLEAR     66  66 100 CALM      30.00F
KOKOMO*        CLEAR     64  57  77 CALM      30.01F
MUNCIE*        CLEAR     68  65  90 CALM      30.01F
INDIANAPOLIS   PTCLDY    72  66  81 CALM      30.01F

$$
MIZ043>046-050>051-056>058-064>065-071>073-077>080-270800-
SOUTHWEST LOWER MICHIGAN

CITY           SKY/WX    TMP DP  RH WIND       PRES   REMARKS
BATTLE CREEK   CLEAR     64  64 100 CALM      30.01S
BENTON HARBOR  CLEAR     62  60  93 CALM      30.00F FOG
COLDWATER*     CLEAR     64  64  99 CALM      30.01S
HOLLAND        CLEAR     63  61  93 CALM      30.00F
GRAND RAPIDS   CLEAR     68  62  81 CALM      30.00F
KALAMAZOO      CLEAR     66  62  87 CALM      30.01S
STURGIS*       CLEAR     64  64  97 CALM      30.00F
THREE RIVERS*  FAIR      67  64  93 CALM      30.02R

$$
OHZ001>008-015>018-024>025-270800-
NORTHWEST OHIO

CITY           SKY/WX    TMP DP  RH WIND       PRES   REMARKS
DEFIANCE       CLEAR     67  63  87 CALM      30.00F
FINDLAY        CLEAR     68  60  75 CALM      30.00S
TOLEDO EXPRESS CLEAR     64  64 100 CALM      30.00S
TOLEDO METCALF PTCLDY    69  62  78 CALM      30.00F
LIMA           PTCLDY    67  63  87 SE3       30.01F

$$
AND FOR LAKE MICHIGAN COASTAL AND OPEN LAKE BUOY OBSERVATIONS

STATION/POSITION TEMP    WIND        PRES    VSBY  WAVE
                 AIR SEA DIR/SP/G                  HT/PER
                 (F)     (DEG/KT/KT) (MB)    (MI)  (FT/S)
CALUMET HARBOR    74     200/  1/  2 1015.4F
MICHIGAN CITY     71     110/  2/  2   N/A
BURNS HARBOR      72     190/  4/  7 1016.3F
SAINT JOSEPH      70     140/  1/  2 1016.9R
SOUTH LAKE BUOY   75 76  190/  6/  6 1015.1          0
4 MI NW BRIDGMAN  75 78  160/  4/  4 1015.6F         0
MICHIGAN CITY     75 77  160/  2/  4   N/A           0

$$
&&




USA.gov is the U.S. government's official web portal to all federal, state and local government web resources and services.